DW9051 Weather Reports


time (UTC)temp
F
wind
direction
speed
knots
gust
knots
rain 1hr
in
rain 24hr
in
rain mn
in
humidity
%
barometer
mb
20260505052520 57 317 0.9 2.6 0.00 0.00 0.00 80 1010.2
20260505051517 57 301 1.7 2.6 0.00 0.00 0.00 79 1010.1
20260505050517 58 327 0.9 1.7 0.00 0.00 0.00 78 1010.0
20260505041518 60 307 2.6 4.3 0.00 0.00 0.00 75 1009.6
20260505040518 61 310 1.7 3.5 0.00 0.00 0.00 75 1009.4
20260505035521 62 312 1.7 3.5 0.00 0.00 0.00 74 1009.4
20260505034521 62 326 1.7 3.5 0.00 0.00 0.00 74 1009.2
20260505033538 63 73 2.6 4.3 0.00 0.00 0.00 73 1009.2
20260505032518 64 309 2.6 3.5 0.00 0.00 0.00 71 1009.1
20260505031519 64 329 0.9 1.7 0.00 0.00 0.00 71 1009.0
20260505030538 65 299 1.7 2.6 0.00 0.00 0.00 71 1008.9
20260505025539 65 328 0.9 3.5 0.00 0.00 0.00 70 1008.9
20260505024539 66 315 2.6 4.3 0.00 0.00 0.00 68 1008.9
20260505023519 67 323 1.7 2.6 0.00 0.00 0.00 67 1008.8
20260505022519 68 13 1.7 3.5 0.00 0.00 0.00 65 1009.0
20260505021519 69 45 1.7 6.1 0.00 0.00 0.00 63 1009.0
20260505020520 70 37 2.6 6.1 0.00 0.00 0.00 62 1009.0
20260505015539 70 0 2.6 5.2 0.00 0.00 0.00 61 1009.2
20260505014520 71 345 2.6 6.1 0.00 0.00 0.00 59 1009.4
20260505013519 71 18 2.6 6.1 0.00 0.00 0.00 57 1009.5
20260505012520 71 342 3.5 7.0 0.00 0.00 0.00 57 1009.6
20260505011519 71 339 3.5 6.1 0.00 0.00 0.00 56 1009.7
20260505010517 71 337 4.3 8.7 0.00 0.00 0.00 56 1009.7
20260505005540 72 333 5.2 9.6 0.00 0.00 0.00 54 1009.8
20260505004520 72 342 3.5 5.2 0.00 0.00 0.00 54 1009.8
20260505003520 72 319 4.3 7.0 0.00 0.00 0.00 53 1009.8
20260505002537 72 342 4.3 7.8 0.00 0.00 0.00 54 1009.8
20260505001517 73 331 4.3 7.0 0.00 0.00 0.00 55 1010.0
20260505000518 72 324 2.6 4.3 0.00 0.00 0.00 57 1010.1
20260504235521 68 93 2.6 4.3 0.00 0.00 0.00 72 1010.0
20260504234520 65 145 1.7 3.5 0.00 0.00 0.00 76 1009.9
20260504233518 66 149 2.6 4.3 0.00 0.00 0.00 77 1009.9
20260504232518 67 156 3.5 5.2 0.00 0.00 0.00 76 1010.1
20260504231518 68 148 2.6 4.3 0.00 0.00 0.00 72 1010.1
20260504230518 68 151 1.7 2.6 0.00 0.00 0.00 72 1010.4
20260504225521 67 134 2.6 4.3 0.00 0.00 0.00 74 1010.4
20260504224519 66 116 3.5 6.1 0.00 0.00 0.00 76 1010.4
20260504223518 67 158 3.5 5.2 0.00 0.00 0.00 74 1010.4
20260504222519 67 134 3.5 7.0 0.00 0.00 0.00 75 1010.6
20260504221518 67 129 2.6 4.3 0.00 0.00 0.00 72 1010.8
20260504220519 67 135 3.5 6.1 0.00 0.00 0.00 71 1010.9
20260504215559 66 145 4.3 7.0 0.00 0.00 0.00 69 1011.0
20260504214519 65 149 4.3 7.8 0.00 0.00 0.00 73 1010.9
20260504213519 65 154 4.3 7.0 0.00 0.00 0.00 75 1011.0
20260504212520 65 153 4.3 6.1 0.00 0.00 0.00 75 1011.0
20260504211519 64 153 3.5 5.2 0.00 0.00 0.00 79 1011.2
20260504210519 63 156 5.2 6.1 0.00 0.00 0.00 80 1011.1
20260504205520 63 160 5.2 8.7 0.00 0.00 0.00 81 1011.1
20260504204519 63 162 6.1 7.8 0.00 0.00 0.00 82 1011.0
20260504203520 65 150 5.2 8.7 0.00 0.00 0.00 76 1011.2
20260504202520 64 138 2.6 5.2 0.00 0.00 0.00 76 1011.4
20260504201517 63 138 2.6 5.2 0.00 0.00 0.00 80 1011.6
20260504200517 62 140 2.6 5.2 0.00 0.00 0.00 81 1011.6
20260504195520 62 129 3.5 5.2 0.00 0.00 0.00 81 1011.5
20260504194521 61 130 3.5 5.2 0.00 0.00 0.00 82 1011.4
20260504193517 60 141 3.5 5.2 0.00 0.00 0.00 82 1011.5
20260504192537 59 143 3.5 5.2 0.00 0.00 0.00 85 1011.5
20260504191518 59 157 4.3 7.0 0.00 0.00 0.00 85 1011.4
20260504185521 59 151 4.3 6.1 0.00 0.00 0.00 85 1011.5
20260504184518 58 153 4.3 6.1 0.00 0.00 0.00 87 1011.4
20260504183518 58 157 3.5 6.1 0.00 0.00 0.00 87 1011.4
20260504182519 59 128 2.6 7.0 0.00 0.00 0.00 87 1011.8
20260504181518 58 121 3.5 5.2 0.00 0.00 0.00 87 1011.7
20260504180518 58 122 2.6 5.2 0.00 0.00 0.00 88 1011.6
20260504175519 57 114 2.6 5.2 0.00 0.00 0.00 89 1011.6
20260504174519 56 154 3.5 4.3 0.00 0.00 0.00 89 1011.4
20260504173519 56 156 4.3 6.1 0.00 0.00 0.00 89 1011.4
20260504172519 56 157 4.3 6.1 0.00 0.00 0.00 87 1011.4
20260504171519 56 146 4.3 6.1 0.00 0.00 0.00 85 1011.3
20260504170539 56 154 3.5 5.2 0.00 0.00 0.00 86 1011.3
20260504150517 53 174 0.9 1.7 0.00 0.00 0.00 88 1010.4
20260504140518 53 112 0.0 1.7 0.00 0.00 0.00 88 1009.6
20260504130518 52 226 0.0 1.7 0.00 0.00 0.00 87 1009.0
20260504110517 53 154 0.9 1.7 0.00 0.00 0.00 82 1008.8
20260504100518 55 45 0.0 0.9 0.00 0.00 0.00 78 1008.9
20260504081537 55 226 1.7 2.6 0.00 0.00 0.00 81 1008.7
20260504080537 55 217 0.9 2.6 0.00 0.00 0.00 78 1008.4